Showing default

ORBCOMM FM 103, 40091

Orbit data source: Space-Track

ORBCOMM FM 103, 40091 is a payload satellite owned by Orbcomm (US) in LEO that was launched on Mon, 14 Jul 2014 UTC via an FALCON 9 launch vehicle from the Air Force Eastern Test Range (AFETR). Payload-class satellites include a variety of spacecraft equipped with specific instruments for various scientific and technological missions. These include communications satellites like Starlink; space stations such as the ISS; scientific satellites like the Hubble; Earth observation satellites from companies like Planet Labs, Umbra, and HawkEye 360; GPS; miniature CubeSats for education and research; and military/defense satellites.

Loading next visibility...
Identifier
40091, 2014-040F
Orbit
LEO
Country
Flag of USUS / ORB
Related business
Manufacturer
SNC Louisville
Mission
Non-operational Commercial Communications
Bus & Motor
SN-100A, Unknown motor
Mass
172 kg wet, 158 kg dry
Launch date (UTC)
2014-07-14 (12 years ago)
Launch vehicle
FALCON 9
Launch site
Air Force Eastern Test Range (AFETR)
Object type
Payload
Rocket body
Debris
Shape & HBR
Box + 1 Pan + 1 Ant, 5.3 m
Radar Cross Section
2.222 m², Medium (>0.1 m² and < 1m²)

Expand to show TLE details & history
Last TLE update: 17 hours ago

TLE from 17 hours ago
0 ORBCOMM FM 103
1 40091U 14040F   26177.89505906  .00000450  00000-0  13140-3 0  9999
2 40091  47.0059  47.1875 0001643 213.6805 146.3977 14.58847530618807
Epoch: 2026-06-26T21:28Z
TLE epoch observation values (Epoch: 2026-06-26T21:28:53.102Z)
Latitude
-0°
Longitude
169.94923°
Altitude
698.082 km
Speed
7.508 km/s
True Right ascension
03h 08m 44s
True Declination
0° 00' 00"
Sunlit
Object was in daylight at epoch
Visualization orbit readout
Latitude
Unknown
Longitude
Unknown
Altitude
Unknown
Speed
Unknown
Apparent Right ascension
Unknown
Apparent Declination
Unknown
Sunlit
N/A
Visualization observer readout
Local Sidereal Time
01:58:38
Azimuth
Unknown
Elevation
Unknown
Doppler factor
Unknown
Orbital elements
Apogee altitude
699.294 km
Perigee altitude
696.969 km
Semi-major axis
7,076.269 km
Eccentricity
0.00016
Inclination
47.0059°
RAAN
47.1875°
Arg. of periapsis
213.6805°
True anomaly
146.40812°
Mean anomaly
146.3977°
Eccentric anomaly
146.40291°
Mean motion
3.64617 °/min
Orbital period
98.73 mins
BSTAR
0.0001314
Loading maneuver chart data...
Computing Atmospheric mass density...
Loading historical data...
Loading historical data...
Loading historical data...
Loading historical data...
Loading historical data...
Loading historical data...
Loading historical data...

Documentation

Showing up to 5 results
|